Location: Newark
(55.7083°N, 13.1992°E)
Time: 22:32:48
(UTC+00:00)

Transit 4A - Pass Details

Date: 22 February 2020
Orbit: 871 x 973 km, 66.8° (Epoch: 06 April)

Event Time Altitude Azimuth Distance (km) Brightness Sun altitude
Exits shadow 00:02:55 13° 47° (NE) 2,316 10.4 -44.0°
Drops below altitude 10° 00:03:30 10° 46° (NE) 2,531 10.6 -44.0°
Sets 00:05:59 0° 44° (NE) 3,472 11.5 -43.9°
